Location: Unspecified
(0.0000°N, 0.0000°E)
Time: 10:03:43
(UTC+00:00)

N. Korean satellite - Pass Details

Date: 07 June 2020
Orbit: 454 x 505 km, 97.2° (Epoch: 06 July)

Event Time Altitude Azimuth Distance (km) Brightness Sun altitude
Rises 04:43:34 0° 31° (NNE) 2,553 11.2 -17.3°
Reaches altitude 10° 04:45:55 10° 46° (NE) 1,666 10.4 -16.8°
Maximum altitude 04:48:51 24° 101° (E) 1,042 8.9 -16.1°
Drops below altitude 10° 04:51:45 10° 156° (SSE) 1,648 9.3 -15.5°
Sets 04:54:03 0° 170° (S) 2,519 10.1 -14.9°
